STARLINK-2263

decayed
NORAD ID: 48003 Int'l Des: 2021-024 Owner: SPXS Country: US Constellation: starlink
LEOCIRCULAR
グループ

STARLINK-2263について

説明を読み込み中...

高度履歴

Altitude vs Time

uPlot chart will show altitude changes over time

軌道要素

1 48003U 21024AC 25151.14597499 .30871399 12649-4 29757-3 0 9995
2 48003 53.0252 133.5969 0005178 258.3141 160.1720 16.50889224231878
Epoch: May 31, 2025 • Age: 2666 hours

現在のステータス

Position data unavailable
打ち上げ日 Mar 24, 2021
運用期間 4.4 years
落下予定日 May 31, 2025
タイプ internet

技術仕様

分類 Payload
質量 260.00 kg
乾燥質量 248.00 kg
総質量 260.00 kg
長さ 0.20 m
直径 2.80 m
スパン 9.00 m
形状 Box + pan
製造者 SPXS
バスタイプ Starlink
フェーズステータス Reentered
所有者/国 SPXS/US

大規模コンステレーション

Loading constellations...